Tallevast, FL

4:56 PM EST on January 17, 2017 (GMT -0500)
Sarasota-bradenton

Weather History for KSRQ - December, 2000

Change the Weather History Date:

Sunday, December 31, 2000

  Actual Average Record
Temperature  
Mean Temperature 40 °F 61 °F  
Max Temperature 48 °F 71 °F 87 °F (1990)
Min Temperature 32 °F 52 °F 29 °F (1926)
Degree Days  
Heating Degree Days 25 5  
Month to date heating degree days 120  
Since 1 July heating degree days 155  
Cooling Degree Days 0 2  
Month to date cooling degree days 74  
Year to date cooling degree days 3374  
Moisture  
Dew Point 28 °F    
Average Humidity 63    
Maximum Humidity 92    
Minimum Humidity 48    
Precipitation  
Precipitation 0.00 in 0.07 in 3.12 in (2002)
Month to date precipitation 2.53  
Year to date precipitation 53.01  
Sea Level Pressure  
Sea Level Pressure 30.28 in    
Wind  
Wind Speed 9 mph (NNE)    
Max Wind Speed 14 mph    
Max Gust Speed 22 mph    
Visibility 10 miles    
Events      
T = Trace of Precipitation, MM = Missing Value Source: NWS Daily Summary

Daily Weather History Graph

Daily Weather History Graph

Search for Another Location

Airport or City:

Trip Planner

Search our weather history database for the weather conditions in past years. The results will help you decide how hot, cold, wet, or windy it might be!

Date:

Astronomy

Dec. 31, 2000 Rise Set
Actual Time 7:20 AM EST 5:46 PM EST
Civil Twilight 6:54 AM EST 6:12 PM EST
Nautical Twilight 6:25 AM EST 6:41 PM EST
Astronomical Twilight 5:57 AM EST 7:09 PM EST
Moon 11:21 AM EST (12/31) 11:02 PM EST (12/31)
Length of Visible Light 11h 17m
Length of Day
10h 26m
Waxing Crescent, 29% of the Moon is Illuminated
Dec 31
Waxing Crescent
Jan 2
First Quarter
Jan 9
Full
Jan 16
Last Quarter
Jan 24
New

Hourly Weather History & Observations

Time (EST) Temp. Windchill Dew Point Humidity Pressure Visibility Wind Dir Wind Speed Gust Speed Precip Events Conditions
12:53 AM 48.0 °F - 36.0 °F 63% 30.19 in 10.0 mi NNW 9.2 mph - N/A   Mostly Cloudy
1:53 AM 42.1 °F 35.2 °F 34.0 °F 73% 30.21 in 10.0 mi NNE 12.7 mph 21.9 mph N/A   Scattered Clouds
2:53 AM 37.9 °F 30.9 °F 30.9 °F 76% 30.22 in 10.0 mi NE 10.4 mph - N/A   Clear
3:53 AM 34.0 °F 26.0 °F 25.0 °F 70% 30.23 in 10.0 mi NE 10.4 mph - N/A   Clear
4:53 AM 33.1 °F 24.4 °F 19.9 °F 59% 30.24 in 10.0 mi NE 11.5 mph - N/A   Clear
5:53 AM 32.0 °F 24.8 °F 19.9 °F 61% 30.26 in 10.0 mi NE 8.1 mph - N/A   Clear
6:53 AM 32.0 °F 24.8 °F 19.9 °F 61% 30.28 in 10.0 mi NNE 8.1 mph - N/A   Clear
7:53 AM 32.0 °F 24.8 °F 18.0 °F 56% 30.30 in 10.0 mi NNE 8.1 mph - N/A   Clear
8:53 AM 35.1 °F 27.9 °F 19.0 °F 52% 30.31 in 10.0 mi NE 9.2 mph - N/A   Clear
9:53 AM 39.0 °F 32.3 °F 21.9 °F 50% 30.34 in 10.0 mi NNE 10.4 mph - N/A   Clear
10:53 AM 43.0 °F 36.4 °F 26.1 °F 51% 30.33 in 10.0 mi NNE 12.7 mph - N/A   Clear
11:53 AM 46.0 °F 40.2 °F 28.0 °F 50% 30.31 in 10.0 mi NNE 12.7 mph - N/A   Clear
12:53 PM 46.0 °F 39.9 °F 30.0 °F 54% 30.28 in 10.0 mi NNW 13.8 mph - N/A   Clear
1:53 PM 46.9 °F - 32.0 °F 56% 30.27 in 10.0 mi North 10.4 mph 19.6 mph N/A   Clear
2:53 PM 48.9 °F - 33.1 °F 54% 30.25 in 10.0 mi NNW 9.2 mph - N/A   Clear
3:53 PM 48.9 °F - 32.0 °F 52% 30.25 in 10.0 mi NNW 8.1 mph - N/A   Clear
4:53 PM 46.9 °F - 28.0 °F 48% 30.27 in 10.0 mi North 9.2 mph - N/A   Clear
5:53 PM 44.1 °F 39.0 °F 28.0 °F 53% 30.28 in 10.0 mi North 9.2 mph - N/A   Clear
6:53 PM 41.0 °F 36.4 °F 26.1 °F 55% 30.29 in 10.0 mi North 6.9 mph - N/A   Clear
7:53 PM 39.9 °F 34.5 °F 30.9 °F 70% 30.30 in 10.0 mi North 8.1 mph - N/A   Clear
8:53 PM 37.9 °F 34.4 °F 33.1 °F 83% 30.32 in 10.0 mi North 4.6 mph - N/A   Clear
9:53 PM 36.0 °F - 33.1 °F 89% 30.33 in 10.0 mi Calm Calm - N/A   Clear
10:53 PM 37.0 °F 34.5 °F 33.1 °F 86% 30.34 in 10.0 mi NE 3.5 mph - N/A   Clear
11:53 PM 34.0 °F - 32.0 °F 92% 30.34 in 10.0 mi Calm Calm - N/A   Clear